Regional Weather Roundup
Issued by NWS Kansas City/Pleasant Hill, MO

Home | Current Version | Previous Version | Text Only | Print | Product List | Glossary On
Versions: 1 2 3 4 5 6 7 8 9 10 11 12 13 14 15 16 17 18 19 20 21 22 23 24 25 26 27 28 29 30 31 32 33 34 35 36 37 38 39 40 41 42 43 44 45 46 47 48 49 50
000
ASUS43 KEAX 212304
RWREAX

WEATHER ROUNDUP FOR EASTERN KANSAS AND NORTHWEST MISSOURI
NATIONAL WEATHER SERVICE KANSAS CITY/PLEASANT HILL MO
600 PM CDT THU AUG 21 2014

KSZ040-057-103>105-MOZ028-029-037-043-220000-
...KANSAS CITY METROPOLITAN AREA...

CITY           SKY/WX    TMP DP  RH WIND       PRES   REMARKS
K.C. INTL      MOSUNNY   94  73  50 S15       29.85S HX 103
K.C. DOWNTOWN  SUNNY     96  71  44 S16G23    29.83F HX 103
LEES SUMMIT    SUNNY     93  71  48 S13G21    29.87F HX 100
OLATHE - IXD   MOSUNNY   95  70  44 S20G28    29.88S HX 101
OLATHE - OJC   SUNNY     93  72  50 S10G20    29.87F HX 101
LAWRENCE       MOSUNNY   96  70  42 S10       29.84S HX 102

$$

MOZ001>008-011>017-020>025-030>033-038>040-044>046-053-054-220000-
...NORTHERN AND CENTRAL MISSOURI...

CITY           SKY/WX    TMP DP  RH WIND       PRES   REMARKS
ST. JOSEPH     MOSUNNY   91  77  63 S8        29.82F HX 104
MOSBY          PTCLDY    91  72  52 S7        29.85S HX  98
WHITEMAN AFB   NOT AVBL
CLINTON        SUNNY     93  72  49 SW8       29.90F HX 100
SEDALIA        PTSUNNY   91  73  55 S8        29.91F HX  99
WARSAW         NOT AVBL
MARSHALL       CLOUDY    91  79  66 S6        29.90S HAZE    HX 107
CHILLICOTHE      N/A     89  77  67 SE5       29.88S HX 101
MOBERLY        PTSUNNY   90  73  58 S3        29.91S HX  98
KIRKSVILLE     PTSUNNY   87  76  69 S7        29.91S HX  97

$$

MOZ041-047>049-056>058-063>065-088>090-097-220000-
...EASTERN AND SOUTHERN MISSOURI...

CITY           SKY/WX    TMP DP  RH WIND       PRES   REMARKS
ST. LOUIS INTL PTSUNNY   95  71  45 SW9       29.93F HX 102
SPIRIT OF STL  PTSUNNY   93  74  53 S6        29.90F HX 103
COLUMBIA       PTSUNNY   90  73  57 S7        29.92S HX  98
JEFFERSON CITY MOSUNNY   93  70  46 S7        29.90S HX  99
MEXICO         PTSUNNY   90  82  79 CALM      29.91F HX 111
ROLLA          SUNNY     91  70  49 S8        29.94F HX  96
LEBANON        MOSUNNY   97  57  26 SW10      29.96S HX  95
OSAGE BEACH    MOSUNNY   97  68  38 SW6       29.92S HX 101
SPRINGFIELD    MOSUNNY   95  64  35 S10       29.96F HX  97
BRANSON        MOSUNNY   93  64  38 S8G16     30.01S HX  95
NEVADA         SUNNY     95  70  43 SW14      29.93S HX 101
JOPLIN         SUNNY     93  68  43 S17G26    29.94S HX  97
WEST PLAINS    SUNNY     91  65  41 S9        30.01S HX  93

$$

IAZ060-094-KSZ022-034>040-054-083-096-NEZ052-066-093-220000-
...KANSAS...SOUTHEAST NEBRASKA AND IOWA...

CITY           SKY/WX    TMP DP  RH WIND       PRES   REMARKS
TOPEKA         SUNNY     98  70  40 S14G23    29.83S HX 105
MANHATTAN      SUNNY     99  68  36 S15G23    29.81S HX 104
EMPORIA        SUNNY     95  69  42 S18G28    29.87S HX 100
CHANUTE        MOSUNNY   94  71  47 S17G25    29.91S HX 101
WICHITA        MOSUNNY   97  67  37 S21G28    29.85S HX 101
OMAHA          MOSUNNY   92  69  47 W8        29.84R HX  97
LINCOLN        MOSUNNY   90  71  53 N7        29.84F HX  96
FALLS CITY     PTSUNNY   98  72  42 S9        29.80S HX 107
LAMONI         MOSUNNY   87  75  67 S8        29.87S HX  96
DES MOINES     MOSUNNY   87  74  64 S12       29.85S HX  95

$$



USA.gov is the U.S. government's official web portal to all federal, state and local government web resources and services.